<?xml version="1.0"?>
<gpx xmlns="http://www.topografix.com/GPX/1/1" xmlns:xsi="http://www.w3.org/2001/XMLSchema-instance" version="1.1" creator="GPX RubyGem 1.0.0 -- http://dougfales.github.io/gpx/" xsi:schemaLocation="http://www.topografix.com/GPX/1/1 http://www.topografix.com/GPX/1/1/gpx.xsd">
  <metadata>
    <name/>
    <time>2026-05-07T19:12:20+00:00</time>
    <bound minlat="90.0" minlon="180.0" maxlat="-90.0" maxlon="-180.0"/>
  </metadata>
  <trk>
    <name/>
    <trkseg>
      <trkpt lat="46.403726" lon="9.880163">
        <time>1970-01-01T00:00:00+00:00</time>
        <ele>2586.0</ele>
      </trkpt>
      <trkpt lat="46.403227" lon="9.880603">
        <time>1970-01-01T00:00:00+00:00</time>
        <ele>2595.0</ele>
      </trkpt>
      <trkpt lat="46.403194" lon="9.882664">
        <time>1970-01-01T00:00:00+00:00</time>
        <ele>2688.0</ele>
      </trkpt>
      <trkpt lat="46.402998" lon="9.883287">
        <time>1970-01-01T00:00:00+00:00</time>
        <ele>2710.0</ele>
      </trkpt>
      <trkpt lat="46.403481" lon="9.883098">
        <time>1970-01-01T00:00:00+00:00</time>
        <ele>2726.0</ele>
      </trkpt>
      <trkpt lat="46.403453" lon="9.884764">
        <time>1970-01-01T00:00:00+00:00</time>
        <ele>2789.0</ele>
      </trkpt>
      <trkpt lat="46.40057" lon="9.88909">
        <time>1970-01-01T00:00:00+00:00</time>
        <ele>2833.0</ele>
      </trkpt>
      <trkpt lat="46.400313" lon="9.889677">
        <time>1970-01-01T00:00:00+00:00</time>
        <ele>2841.0</ele>
      </trkpt>
      <trkpt lat="46.400317" lon="9.891201">
        <time>1970-01-01T00:00:00+00:00</time>
        <ele>2908.0</ele>
      </trkpt>
      <trkpt lat="46.399578" lon="9.891734">
        <time>1970-01-01T00:00:00+00:00</time>
        <ele>2871.0</ele>
      </trkpt>
      <trkpt lat="46.398555" lon="9.89359">
        <time>1970-01-01T00:00:00+00:00</time>
        <ele>2949.0</ele>
      </trkpt>
      <trkpt lat="46.395624" lon="9.896673">
        <time>1970-01-01T00:00:00+00:00</time>
        <ele>2972.0</ele>
      </trkpt>
      <trkpt lat="46.394806" lon="9.898078">
        <time>1970-01-01T00:00:00+00:00</time>
        <ele>3004.0</ele>
      </trkpt>
      <trkpt lat="46.395677" lon="9.899286">
        <time>1970-01-01T00:00:00+00:00</time>
        <ele>3084.0</ele>
      </trkpt>
      <trkpt lat="46.39616" lon="9.900467">
        <time>1970-01-01T00:00:00+00:00</time>
        <ele>3142.0</ele>
      </trkpt>
      <trkpt lat="46.396246" lon="9.901324">
        <time>1970-01-01T00:00:00+00:00</time>
        <ele>3160.0</ele>
      </trkpt>
      <trkpt lat="46.395592" lon="9.90205">
        <time>1970-01-01T00:00:00+00:00</time>
        <ele>3167.0</ele>
      </trkpt>
      <trkpt lat="46.395407" lon="9.903197">
        <time>1970-01-01T00:00:00+00:00</time>
        <ele>3201.0</ele>
      </trkpt>
      <trkpt lat="46.394463" lon="9.905076">
        <time>1970-01-01T00:00:00+00:00</time>
        <ele>3280.0</ele>
      </trkpt>
      <trkpt lat="46.394614" lon="9.905438">
        <time>1970-01-01T00:00:00+00:00</time>
        <ele>3309.0</ele>
      </trkpt>
      <trkpt lat="46.395161" lon="9.905397">
        <time>1970-01-01T00:00:00+00:00</time>
        <ele>3304.0</ele>
      </trkpt>
      <trkpt lat="46.394294" lon="9.906715">
        <time>1970-01-01T00:00:00+00:00</time>
        <ele>3391.0</ele>
      </trkpt>
      <trkpt lat="46.3933" lon="9.90683">
        <time>1970-01-01T00:00:00+00:00</time>
        <ele>3442.0</ele>
      </trkpt>
      <trkpt lat="46.391789" lon="9.905862">
        <time>1970-01-01T00:00:00+00:00</time>
        <ele>3530.0</ele>
      </trkpt>
      <trkpt lat="46.388733" lon="9.906338">
        <time>1970-01-01T00:00:00+00:00</time>
        <ele>3685.0</ele>
      </trkpt>
      <trkpt lat="46.387248" lon="9.90612">
        <time>1970-01-01T00:00:00+00:00</time>
        <ele>3809.0</ele>
      </trkpt>
      <trkpt lat="46.386578" lon="9.906384">
        <time>1970-01-01T00:00:00+00:00</time>
        <ele>3840.0</ele>
      </trkpt>
      <trkpt lat="46.385848" lon="9.906005">
        <time>1970-01-01T00:00:00+00:00</time>
        <ele>3873.0</ele>
      </trkpt>
      <trkpt lat="46.385144" lon="9.90604">
        <time>1970-01-01T00:00:00+00:00</time>
        <ele>3888.0</ele>
      </trkpt>
      <trkpt lat="46.383681" lon="9.907055">
        <time>1970-01-01T00:00:00+00:00</time>
        <ele>3907.0</ele>
      </trkpt>
      <trkpt lat="46.383281" lon="9.907872">
        <time>1970-01-01T00:00:00+00:00</time>
        <ele>3912.0</ele>
      </trkpt>
      <trkpt lat="46.382655" lon="9.908099">
        <time>1970-01-01T00:00:00+00:00</time>
        <ele>3921.0</ele>
      </trkpt>
      <trkpt lat="46.381963" lon="9.908032">
        <time>1970-01-01T00:00:00+00:00</time>
        <ele>3959.0</ele>
      </trkpt>
      <trkpt lat="46.380847" lon="9.907432">
        <time>1970-01-01T00:00:00+00:00</time>
        <ele>3951.0</ele>
      </trkpt>
      <trkpt lat="46.380072" lon="9.908203">
        <time>1970-01-01T00:00:00+00:00</time>
        <ele>3905.0</ele>
      </trkpt>
      <trkpt lat="46.379614" lon="9.90948">
        <time>1970-01-01T00:00:00+00:00</time>
        <ele>3874.0</ele>
      </trkpt>
      <trkpt lat="46.379154" lon="9.910123">
        <time>1970-01-01T00:00:00+00:00</time>
        <ele>3838.0</ele>
      </trkpt>
      <trkpt lat="46.378506" lon="9.910414">
        <time>1970-01-01T00:00:00+00:00</time>
        <ele>3793.0</ele>
      </trkpt>
      <trkpt lat="46.377994" lon="9.910255">
        <time>1970-01-01T00:00:00+00:00</time>
        <ele>3768.0</ele>
      </trkpt>
      <trkpt lat="46.377274" lon="9.909463">
        <time>1970-01-01T00:00:00+00:00</time>
        <ele>3734.0</ele>
      </trkpt>
      <trkpt lat="46.37581" lon="9.910523">
        <time>1970-01-01T00:00:00+00:00</time>
        <ele>3667.0</ele>
      </trkpt>
      <trkpt lat="46.373725" lon="9.910587">
        <time>1970-01-01T00:00:00+00:00</time>
        <ele>3589.0</ele>
      </trkpt>
    </trkseg>
  </trk>
</gpx>
